owner,sensor,date,latitude,longitude,air_pressure(mBar),qcFlag 
NDBC,ioos:station:NOAA.NDBC:SRST2:1,2017-01-01T01:00:00Z,29.6830,-94.0330,1011.3,1111122 
NDBC,ioos:station:NOAA.NDBC:SRST2:1,2017-01-01T02:00:00Z,29.6830,-94.0330,1011.7,1111122 
NDBC,ioos:station:NOAA.NDBC:SRST2:1,2017-01-01T03:00:00Z,29.6830,-94.0330,1012.1,1111122 
NDBC,ioos:station:NOAA.NDBC:SRST2:1,2017-01-01T04:00:00Z,29.6830,-94.0330,1012.2,1111122 
NDBC,ioos:station:NOAA.NDBC:SRST2:1,2017-01-01T05:00:00Z,29.6830,-94.0330,1012.3,1111122 
NDBC,ioos:station:NOAA.NDBC:SRST2:1,2017-01-01T06:00:00Z,29.6830,-94.0330,1012.1,1111122 
NDBC,ioos:station:NOAA.NDBC:SRST2:1,2017-01-01T07:00:00Z,29.6830,-94.0330,1011.4,1111122 
NDBC,ioos:station:NOAA.NDBC:SRST2:1,2017-01-01T08:00:00Z,29.6830,-94.0330,1011.4,1111122 
NDBC,ioos:station:NOAA.NDBC:SRST2:1,2017-01-01T09:00:00Z,29.6830,-94.0330,1011.7,1111122 
NDBC,ioos:station:NOAA.NDBC:SRST2:1,2017-01-01T10:00:00Z,29.6830,-94.0330,1012.0,1111122 
NDBC,ioos:station:NOAA.NDBC:SRST2:1,2017-01-01T11:00:00Z,29.6830,-94.0330,1012.0,1111122 
NDBC,ioos:station:NOAA.NDBC:SRST2:1,2017-01-01T12:00:00Z,29.6830,-94.0330,1012.3,1111122 
NDBC,ioos:station:NOAA.NDBC:SRST2:1,2017-01-01T13:00:00Z,29.6830,-94.0330,1012.5,1111122 
NDBC,ioos:station:NOAA.NDBC:SRST2:1,2017-01-01T14:00:00Z,29.6830,-94.0330,1013.1,1111122 
NDBC,ioos:station:NOAA.NDBC:SRST2:1,2017-01-01T15:00:00Z,29.6830,-94.0330,1013.7,1111122 
NDBC,ioos:station:NOAA.NDBC:SRST2:1,2017-01-01T16:00:00Z,29.6830,-94.0330,1014.3,1111122 
NDBC,ioos:station:NOAA.NDBC:SRST2:1,2017-01-01T17:00:00Z,29.6830,-94.0330,1014.2,1111122 
NDBC,ioos:station:NOAA.NDBC:SRST2:1,2017-01-01T18:00:00Z,29.6830,-94.0330,1011.9,1111122 
NDBC,ioos:station:NOAA.NDBC:SRST2:1,2017-01-01T19:00:00Z,29.6830,-94.0330,1011.7,1111122 
NDBC,ioos:station:NOAA.NDBC:SRST2:1,2017-01-01T20:00:00Z,29.6830,-94.0330,1011.0,1111122 
NDBC,ioos:station:NOAA.NDBC:SRST2:1,2017-01-01T21:00:00Z,29.6830,-94.0330,1010.6,1111122 
NDBC,ioos:station:NOAA.NDBC:SRST2:1,2017-01-01T22:00:00Z,29.6830,-94.0330,1011.3,1111122 
NDBC,ioos:station:NOAA.NDBC:SRST2:1,2017-01-02T00:00:00Z,29.6830,-94.0330,1012.2,1111122 
NDBC,ioos:station:NOAA.NDBC:SRST2:1,2017-01-02T01:00:00Z,29.6830,-94.0330,1012.0,1111122 
NDBC,ioos:station:NOAA.NDBC:SRST2:1,2017-01-02T02:00:00Z,29.6830,-94.0330,1012.1,1111122 
NDBC,ioos:station:NOAA.NDBC:SRST2:1,2017-01-02T03:00:00Z,29.6830,-94.0330,1012.3,1111122 
NDBC,ioos:station:NOAA.NDBC:SRST2:1,2017-01-02T04:00:00Z,29.6830,-94.0330,1012.4,1111122 
NDBC,ioos:station:NOAA.NDBC:SRST2:1,2017-01-02T05:00:00Z,29.6830,-94.0330,1012.3,1111122 
NDBC,ioos:station:NOAA.NDBC:SRST2:1,2017-01-02T06:00:00Z,29.6830,-94.0330,1012.1,1111122 
NDBC,ioos:station:NOAA.NDBC:SRST2:1,2017-01-02T07:00:00Z,29.6830,-94.0330,1012.1,1111122 
NDBC,ioos:station:NOAA.NDBC:SRST2:1,2017-01-02T08:00:00Z,29.6830,-94.0330,1011.9,1111122 
NDBC,ioos:station:NOAA.NDBC:SRST2:1,2017-01-02T09:00:00Z,29.6830,-94.0330,1011.6,1111122 
NDBC,ioos:station:NOAA.NDBC:SRST2:1,2017-01-02T10:00:00Z,29.6830,-94.0330,1011.2,1111122 
NDBC,ioos:station:NOAA.NDBC:SRST2:1,2017-01-02T11:00:00Z,29.6830,-94.0330,1010.7,1111122 
NDBC,ioos:station:NOAA.NDBC:SRST2:1,2017-01-02T12:00:00Z,29.6830,-94.0330,1010.0,1111122 
NDBC,ioos:station:NOAA.NDBC:SRST2:1,2017-01-02T13:00:00Z,29.6830,-94.0330,1010.7,1111122 
NDBC,ioos:station:NOAA.NDBC:SRST2:1,2017-01-02T14:00:00Z,29.6830,-94.0330,1010.1,1111122 
NDBC,ioos:station:NOAA.NDBC:SRST2:1,2017-01-02T15:00:00Z,29.6830,-94.0330,1010.5,1111122 
NDBC,ioos:station:NOAA.NDBC:SRST2:1,2017-01-02T16:00:00Z,29.6830,-94.0330,1011.4,1111122 
NDBC,ioos:station:NOAA.NDBC:SRST2:1,2017-01-02T17:00:00Z,29.6830,-94.0330,1013.4,1111122 
NDBC,ioos:station:NOAA.NDBC:SRST2:1,2017-01-02T18:00:00Z,29.6830,-94.0330,1012.7,1111122 
NDBC,ioos:station:NOAA.NDBC:SRST2:1,2017-01-02T19:00:00Z,29.6830,-94.0330,1012.3,1111122 
NDBC,ioos:station:NOAA.NDBC:SRST2:1,2017-01-02T20:00:00Z,29.6830,-94.0330,1011.4,1111122 
NDBC,ioos:station:NOAA.NDBC:SRST2:1,2017-01-02T21:00:00Z,29.6830,-94.0330,1011.4,1111122 
NDBC,ioos:station:NOAA.NDBC:SRST2:1,2017-01-02T22:00:00Z,29.6830,-94.0330,1011.4,1111122 
NDBC,ioos:station:NOAA.NDBC:SRST2:1,2017-01-02T23:00:00Z,29.6830,-94.0330,1011.8,1111122 
NDBC,ioos:station:NOAA.NDBC:SRST2:1,2017-01-03T00:00:00Z,29.6830,-94.0330,1012.2,1111122 
NDBC,ioos:station:NOAA.NDBC:SRST2:1,2017-01-03T01:00:00Z,29.6830,-94.0330,1012.7,1111122 
NDBC,ioos:station:NOAA.NDBC:SRST2:1,2017-01-03T02:00:00Z,29.6830,-94.0330,1013.7,1111122 
NDBC,ioos:station:NOAA.NDBC:SRST2:1,2017-01-03T03:00:00Z,29.6830,-94.0330,1013.6,1111122 
NDBC,ioos:station:NOAA.NDBC:SRST2:1,2017-01-03T04:00:00Z,29.6830,-94.0330,1014.7,1111122 
NDBC,ioos:station:NOAA.NDBC:SRST2:1,2017-01-03T05:00:00Z,29.6830,-94.0330,1014.8,1111122 
NDBC,ioos:station:NOAA.NDBC:SRST2:1,2017-01-03T06:00:00Z,29.6830,-94.0330,1014.8,1111122 
NDBC,ioos:station:NOAA.NDBC:SRST2:1,2017-01-03T07:00:00Z,29.6830,-94.0330,1015.0,1111122 
NDBC,ioos:station:NOAA.NDBC:SRST2:1,2017-01-03T08:00:00Z,29.6830,-94.0330,1015.0,1111122 
NDBC,ioos:station:NOAA.NDBC:SRST2:1,2017-01-03T09:00:00Z,29.6830,-94.0330,1014.9,1111122 
NDBC,ioos:station:NOAA.NDBC:SRST2:1,2017-01-03T10:00:00Z,29.6830,-94.0330,1014.9,1111122 
NDBC,ioos:station:NOAA.NDBC:SRST2:1,2017-01-03T11:00:00Z,29.6830,-94.0330,1014.5,1111122 
NDBC,ioos:station:NOAA.NDBC:SRST2:1,2017-01-03T12:00:00Z,29.6830,-94.0330,1014.7,1111122 
NDBC,ioos:station:NOAA.NDBC:SRST2:1,2017-01-03T13:00:00Z,29.6830,-94.0330,1015.0,1111122 
NDBC,ioos:station:NOAA.NDBC:SRST2:1,2017-01-03T14:00:00Z,29.6830,-94.0330,1015.1,1111122 
NDBC,ioos:station:NOAA.NDBC:SRST2:1,2017-01-03T15:00:00Z,29.6830,-94.0330,1015.8,1111122 
NDBC,ioos:station:NOAA.NDBC:SRST2:1,2017-01-03T16:00:00Z,29.6830,-94.0330,1016.7,1111122 
NDBC,ioos:station:NOAA.NDBC:SRST2:1,2017-01-03T17:00:00Z,29.6830,-94.0330,1016.4,1111122 
NDBC,ioos:station:NOAA.NDBC:SRST2:1,2017-01-03T18:00:00Z,29.6830,-94.0330,1015.5,1111122 
NDBC,ioos:station:NOAA.NDBC:SRST2:1,2017-01-03T19:00:00Z,29.6830,-94.0330,1014.9,1111122 
NDBC,ioos:station:NOAA.NDBC:SRST2:1,2017-01-03T20:00:00Z,29.6830,-94.0330,1014.3,1111122 
NDBC,ioos:station:NOAA.NDBC:SRST2:1,2017-01-03T21:00:00Z,29.6830,-94.0330,1014.0,1111122 
NDBC,ioos:station:NOAA.NDBC:SRST2:1,2017-01-03T22:00:00Z,29.6830,-94.0330,1014.4,1111122 
NDBC,ioos:station:NOAA.NDBC:SRST2:1,2017-01-03T23:00:00Z,29.6830,-94.0330,1014.6,1111122 
NDBC,ioos:station:NOAA.NDBC:SRST2:1,2017-01-04T00:00:00Z,29.6830,-94.0330,1014.9,1111122 
NDBC,ioos:station:NOAA.NDBC:SRST2:1,2017-01-04T01:00:00Z,29.6830,-94.0330,1015.3,1111122 
NDBC,ioos:station:NOAA.NDBC:SRST2:1,2017-01-04T02:00:00Z,29.6830,-94.0330,1015.8,1111122 
NDBC,ioos:station:NOAA.NDBC:SRST2:1,2017-01-04T03:00:00Z,29.6830,-94.0330,1016.6,1111122 
NDBC,ioos:station:NOAA.NDBC:SRST2:1,2017-01-04T04:00:00Z,29.6830,-94.0330,1017.3,1111122 
NDBC,ioos:station:NOAA.NDBC:SRST2:1,2017-01-04T05:00:00Z,29.6830,-94.0330,1018.0,1111122 
NDBC,ioos:station:NOAA.NDBC:SRST2:1,2017-01-04T06:00:00Z,29.6830,-94.0330,1017.9,1111122 
NDBC,ioos:station:NOAA.NDBC:SRST2:1,2017-01-04T07:00:00Z,29.6830,-94.0330,1018.0,1111122 
NDBC,ioos:station:NOAA.NDBC:SRST2:1,2017-01-04T08:00:00Z,29.6830,-94.0330,1018.5,1111122 
NDBC,ioos:station:NOAA.NDBC:SRST2:1,2017-01-04T09:00:00Z,29.6830,-94.0330,1018.2,1111122 
NDBC,ioos:station:NOAA.NDBC:SRST2:1,2017-01-04T10:00:00Z,29.6830,-94.0330,1018.4,1111122 
NDBC,ioos:station:NOAA.NDBC:SRST2:1,2017-01-04T11:00:00Z,29.6830,-94.0330,1018.6,1111122 
NDBC,ioos:station:NOAA.NDBC:SRST2:1,2017-01-04T12:00:00Z,29.6830,-94.0330,1019.1,1111122 
NDBC,ioos:station:NOAA.NDBC:SRST2:1,2017-01-04T13:00:00Z,29.6830,-94.0330,1020.2,1111122 
NDBC,ioos:station:NOAA.NDBC:SRST2:1,2017-01-04T14:00:00Z,29.6830,-94.0330,1020.6,1111122 
NDBC,ioos:station:NOAA.NDBC:SRST2:1,2017-01-04T15:00:00Z,29.6830,-94.0330,1021.0,1111122 
NDBC,ioos:station:NOAA.NDBC:SRST2:1,2017-01-04T16:00:00Z,29.6830,-94.0330,1021.3,1111122 
NDBC,ioos:station:NOAA.NDBC:SRST2:1,2017-01-04T17:00:00Z,29.6830,-94.0330,1021.3,1111122 
NDBC,ioos:station:NOAA.NDBC:SRST2:1,2017-01-04T18:00:00Z,29.6830,-94.0330,1020.7,1111122 
NDBC,ioos:station:NOAA.NDBC:SRST2:1,2017-01-04T19:00:00Z,29.6830,-94.0330,1019.0,1111122 
NDBC,ioos:station:NOAA.NDBC:SRST2:1,2017-01-04T20:00:00Z,29.6830,-94.0330,1017.7,1111122 
NDBC,ioos:station:NOAA.NDBC:SRST2:1,2017-01-04T21:00:00Z,29.6830,-94.0330,1017.8,1111122 
NDBC,ioos:station:NOAA.NDBC:SRST2:1,2017-01-04T22:00:00Z,29.6830,-94.0330,1017.9,1111122 
NDBC,ioos:station:NOAA.NDBC:SRST2:1,2017-01-04T23:00:00Z,29.6830,-94.0330,1018.0,1111122 
NDBC,ioos:station:NOAA.NDBC:SRST2:1,2017-01-05T00:00:00Z,29.6830,-94.0330,1017.2,1111122 
NDBC,ioos:station:NOAA.NDBC:SRST2:1,2017-01-05T01:00:00Z,29.6830,-94.0330,1017.4,1111122 
NDBC,ioos:station:NOAA.NDBC:SRST2:1,2017-01-05T02:00:00Z,29.6830,-94.0330,1017.3,1111122 
NDBC,ioos:station:NOAA.NDBC:SRST2:1,2017-01-05T03:00:00Z,29.6830,-94.0330,1016.8,1111122 
NDBC,ioos:station:NOAA.NDBC:SRST2:1,2017-01-05T04:00:00Z,29.6830,-94.0330,1016.6,1111122 
NDBC,ioos:station:NOAA.NDBC:SRST2:1,2017-01-05T05:00:00Z,29.6830,-94.0330,1016.2,1111122 
NDBC,ioos:station:NOAA.NDBC:SRST2:1,2017-01-05T06:00:00Z,29.6830,-94.0330,1015.6,1111122 
NDBC,ioos:station:NOAA.NDBC:SRST2:1,2017-01-05T07:00:00Z,29.6830,-94.0330,1014.6,1111122 
NDBC,ioos:station:NOAA.NDBC:SRST2:1,2017-01-05T08:00:00Z,29.6830,-94.0330,1014.2,1111122 
NDBC,ioos:station:NOAA.NDBC:SRST2:1,2017-01-05T09:00:00Z,29.6830,-94.0330,1014.5,1111122 
NDBC,ioos:station:NOAA.NDBC:SRST2:1,2017-01-05T10:00:00Z,29.6830,-94.0330,1014.1,1111122 
NDBC,ioos:station:NOAA.NDBC:SRST2:1,2017-01-05T11:00:00Z,29.6830,-94.0330,1013.4,1111122 
NDBC,ioos:station:NOAA.NDBC:SRST2:1,2017-01-05T12:00:00Z,29.6830,-94.0330,1013.3,1111122 
NDBC,ioos:station:NOAA.NDBC:SRST2:1,2017-01-05T13:00:00Z,29.6830,-94.0330,1013.3,1111122 
NDBC,ioos:station:NOAA.NDBC:SRST2:1,2017-01-05T14:00:00Z,29.6830,-94.0330,1013.5,1111122 
NDBC,ioos:station:NOAA.NDBC:SRST2:1,2017-01-05T15:00:00Z,29.6830,-94.0330,1014.0,1111122 
NDBC,ioos:station:NOAA.NDBC:SRST2:1,2017-01-05T16:00:00Z,29.6830,-94.0330,1013.7,1111122 
NDBC,ioos:station:NOAA.NDBC:SRST2:1,2017-01-05T17:00:00Z,29.6830,-94.0330,1013.7,1111122 
NDBC,ioos:station:NOAA.NDBC:SRST2:1,2017-01-05T18:00:00Z,29.6830,-94.0330,1012.7,1111122 
NDBC,ioos:station:NOAA.NDBC:SRST2:1,2017-01-05T19:00:00Z,29.6830,-94.0330,1011.6,1111122 
NDBC,ioos:station:NOAA.NDBC:SRST2:1,2017-01-05T20:00:00Z,29.6830,-94.0330,1010.9,1111122 
NDBC,ioos:station:NOAA.NDBC:SRST2:1,2017-01-05T21:00:00Z,29.6830,-94.0330,1011.2,1111122 
NDBC,ioos:station:NOAA.NDBC:SRST2:1,2017-01-05T22:00:00Z,29.6830,-94.0330,1011.5,1111122 
NDBC,ioos:station:NOAA.NDBC:SRST2:1,2017-01-05T23:00:00Z,29.6830,-94.0330,1012.2,1111122 
NDBC,ioos:station:NOAA.NDBC:SRST2:1,2017-01-06T00:00:00Z,29.6830,-94.0330,1012.6,1111122 
NDBC,ioos:station:NOAA.NDBC:SRST2:1,2017-01-06T01:00:00Z,29.6830,-94.0330,1013.2,1111122 
NDBC,ioos:station:NOAA.NDBC:SRST2:1,2017-01-06T03:00:00Z,29.6830,-94.0330,1014.3,1111122 
NDBC,ioos:station:NOAA.NDBC:SRST2:1,2017-01-06T04:00:00Z,29.6830,-94.0330,1015.1,1111122 
NDBC,ioos:station:NOAA.NDBC:SRST2:1,2017-01-06T05:00:00Z,29.6830,-94.0330,1015.3,1111122 
NDBC,ioos:station:NOAA.NDBC:SRST2:1,2017-01-06T06:00:00Z,29.6830,-94.0330,1015.1,1111122 
NDBC,ioos:station:NOAA.NDBC:SRST2:1,2017-01-06T07:00:00Z,29.6830,-94.0330,1014.3,1111122 
NDBC,ioos:station:NOAA.NDBC:SRST2:1,2017-01-06T08:00:00Z,29.6830,-94.0330,1015.0,1111122 
NDBC,ioos:station:NOAA.NDBC:SRST2:1,2017-01-06T09:00:00Z,29.6830,-94.0330,1015.0,1111122 
NDBC,ioos:station:NOAA.NDBC:SRST2:1,2017-01-06T10:00:00Z,29.6830,-94.0330,1015.4,1111122 
NDBC,ioos:station:NOAA.NDBC:SRST2:1,2017-01-06T11:00:00Z,29.6830,-94.0330,1015.9,1111122 
NDBC,ioos:station:NOAA.NDBC:SRST2:1,2017-01-06T12:00:00Z,29.6830,-94.0330,1016.9,1111122 
NDBC,ioos:station:NOAA.NDBC:SRST2:1,2017-01-06T13:00:00Z,29.6830,-94.0330,1017.9,1111122 
NDBC,ioos:station:NOAA.NDBC:SRST2:1,2017-01-06T14:00:00Z,29.6830,-94.0330,1018.1,1111122 
NDBC,ioos:station:NOAA.NDBC:SRST2:1,2017-01-06T15:00:00Z,29.6830,-94.0330,1018.2,1111122 
NDBC,ioos:station:NOAA.NDBC:SRST2:1,2017-01-06T16:00:00Z,29.6830,-94.0330,1019.7,1111122 
NDBC,ioos:station:NOAA.NDBC:SRST2:1,2017-01-06T17:00:00Z,29.6830,-94.0330,1019.0,1111122 
NDBC,ioos:station:NOAA.NDBC:SRST2:1,2017-01-06T18:00:00Z,29.6830,-94.0330,1019.9,1111122 
NDBC,ioos:station:NOAA.NDBC:SRST2:1,2017-01-06T19:00:00Z,29.6830,-94.0330,1018.5,1111122 
NDBC,ioos:station:NOAA.NDBC:SRST2:1,2017-01-06T20:00:00Z,29.6830,-94.0330,1019.0,1111122 
NDBC,ioos:station:NOAA.NDBC:SRST2:1,2017-01-06T21:00:00Z,29.6830,-94.0330,1020.2,1111122 
NDBC,ioos:station:NOAA.NDBC:SRST2:1,2017-01-06T22:00:00Z,29.6830,-94.0330,1021.4,1111122 
NDBC,ioos:station:NOAA.NDBC:SRST2:1,2017-01-07T00:00:00Z,29.6830,-94.0330,1023.6,1111122 
NDBC,ioos:station:NOAA.NDBC:SRST2:1,2017-01-07T01:00:00Z,29.6830,-94.0330,1025.4,1111122 
NDBC,ioos:station:NOAA.NDBC:SRST2:1,2017-01-07T02:00:00Z,29.6830,-94.0330,1026.2,1111122 
NDBC,ioos:station:NOAA.NDBC:SRST2:1,2017-01-07T03:00:00Z,29.6830,-94.0330,1027.4,1111122 
NDBC,ioos:station:NOAA.NDBC:SRST2:1,2017-01-07T04:00:00Z,29.6830,-94.0330,1028.6,1111122 
NDBC,ioos:station:NOAA.NDBC:SRST2:1,2017-01-07T05:00:00Z,29.6830,-94.0330,1029.4,1111122 
NDBC,ioos:station:NOAA.NDBC:SRST2:1,2017-01-07T06:00:00Z,29.6830,-94.0330,1030.0,1111122 
NDBC,ioos:station:NOAA.NDBC:SRST2:1,2017-01-07T07:00:00Z,29.6830,-94.0330,1030.3,1111122 
NDBC,ioos:station:NOAA.NDBC:SRST2:1,2017-01-07T08:00:00Z,29.6830,-94.0330,1031.3,1111122 
NDBC,ioos:station:NOAA.NDBC:SRST2:1,2017-01-07T09:00:00Z,29.6830,-94.0330,1032.2,1111122 
NDBC,ioos:station:NOAA.NDBC:SRST2:1,2017-01-07T10:00:00Z,29.6830,-94.0330,1032.8,1111122 
NDBC,ioos:station:NOAA.NDBC:SRST2:1,2017-01-07T11:00:00Z,29.6830,-94.0330,1033.8,1111122 
NDBC,ioos:station:NOAA.NDBC:SRST2:1,2017-01-07T12:00:00Z,29.6830,-94.0330,1035.5,1111122 
NDBC,ioos:station:NOAA.NDBC:SRST2:1,2017-01-07T13:00:00Z,29.6830,-94.0330,1036.8,1111122 
NDBC,ioos:station:NOAA.NDBC:SRST2:1,2017-01-07T14:00:00Z,29.6830,-94.0330,1038.1,1111122 
NDBC,ioos:station:NOAA.NDBC:SRST2:1,2017-01-07T15:00:00Z,29.6830,-94.0330,1039.3,1111122 
NDBC,ioos:station:NOAA.NDBC:SRST2:1,2017-01-07T16:00:00Z,29.6830,-94.0330,1040.2,1111122 
NDBC,ioos:station:NOAA.NDBC:SRST2:1,2017-01-07T17:00:00Z,29.6830,-94.0330,1040.4,1111122 
NDBC,ioos:station:NOAA.NDBC:SRST2:1,2017-01-07T18:00:00Z,29.6830,-94.0330,1039.3,1111122 
NDBC,ioos:station:NOAA.NDBC:SRST2:1,2017-01-07T19:00:00Z,29.6830,-94.0330,1038.4,1111122 
NDBC,ioos:station:NOAA.NDBC:SRST2:1,2017-01-07T20:00:00Z,29.6830,-94.0330,1038.1,1111122 
NDBC,ioos:station:NOAA.NDBC:SRST2:1,2017-01-07T21:00:00Z,29.6830,-94.0330,1038.0,1111122 
NDBC,ioos:station:NOAA.NDBC:SRST2:1,2017-01-07T22:00:00Z,29.6830,-94.0330,1038.1,1111122 
NDBC,ioos:station:NOAA.NDBC:SRST2:1,2017-01-07T23:00:00Z,29.6830,-94.0330,1038.6,1111122 
NDBC,ioos:station:NOAA.NDBC:SRST2:1,2017-01-08T00:00:00Z,29.6830,-94.0330,1039.4,1111122 
NDBC,ioos:station:NOAA.NDBC:SRST2:1,2017-01-08T01:00:00Z,29.6830,-94.0330,1040.0,1111122 
NDBC,ioos:station:NOAA.NDBC:SRST2:1,2017-01-08T02:00:00Z,29.6830,-94.0330,1041.0,1111122 
NDBC,ioos:station:NOAA.NDBC:SRST2:1,2017-01-08T03:00:00Z,29.6830,-94.0330,1041.4,1111122 
NDBC,ioos:station:NOAA.NDBC:SRST2:1,2017-01-08T04:00:00Z,29.6830,-94.0330,1041.4,1111122 
NDBC,ioos:station:NOAA.NDBC:SRST2:1,2017-01-08T05:00:00Z,29.6830,-94.0330,1041.4,1111122 
NDBC,ioos:station:NOAA.NDBC:SRST2:1,2017-01-08T06:00:00Z,29.6830,-94.0330,1041.4,1111122 
NDBC,ioos:station:NOAA.NDBC:SRST2:1,2017-01-08T07:00:00Z,29.6830,-94.0330,1041.2,1111122 
NDBC,ioos:station:NOAA.NDBC:SRST2:1,2017-01-08T08:00:00Z,29.6830,-94.0330,1041.4,1111122 
NDBC,ioos:station:NOAA.NDBC:SRST2:1,2017-01-08T09:00:00Z,29.6830,-94.0330,1041.5,1111122 
NDBC,ioos:station:NOAA.NDBC:SRST2:1,2017-01-08T10:00:00Z,29.6830,-94.0330,1041.3,1111122 
NDBC,ioos:station:NOAA.NDBC:SRST2:1,2017-01-08T11:00:00Z,29.6830,-94.0330,1040.3,1111122 
NDBC,ioos:station:NOAA.NDBC:SRST2:1,2017-01-08T14:00:00Z,29.6830,-94.0330,1041.2,1111122 
NDBC,ioos:station:NOAA.NDBC:SRST2:1,2017-01-08T15:00:00Z,29.6830,-94.0330,1041.7,1111122 
NDBC,ioos:station:NOAA.NDBC:SRST2:1,2017-01-08T16:00:00Z,29.6830,-94.0330,1041.6,1111122 
NDBC,ioos:station:NOAA.NDBC:SRST2:1,2017-01-08T17:00:00Z,29.6830,-94.0330,1041.2,1111122 
NDBC,ioos:station:NOAA.NDBC:SRST2:1,2017-01-08T18:00:00Z,29.6830,-94.0330,1040.7,1111122 
NDBC,ioos:station:NOAA.NDBC:SRST2:1,2017-01-08T19:00:00Z,29.6830,-94.0330,1039.8,1111122 
NDBC,ioos:station:NOAA.NDBC:SRST2:1,2017-01-08T20:00:00Z,29.6830,-94.0330,1038.8,1111122 
NDBC,ioos:station:NOAA.NDBC:SRST2:1,2017-01-08T21:00:00Z,29.6830,-94.0330,1037.9,1111122 
NDBC,ioos:station:NOAA.NDBC:SRST2:1,2017-01-08T22:00:00Z,29.6830,-94.0330,1037.3,1111122 
NDBC,ioos:station:NOAA.NDBC:SRST2:1,2017-01-08T23:00:00Z,29.6830,-94.0330,1036.8,1111122 
NDBC,ioos:station:NOAA.NDBC:SRST2:1,2017-01-09T00:00:00Z,29.6830,-94.0330,1036.0,1111122 
NDBC,ioos:station:NOAA.NDBC:SRST2:1,2017-01-09T01:00:00Z,29.6830,-94.0330,1035.5,1111122 
NDBC,ioos:station:NOAA.NDBC:SRST2:1,2017-01-09T02:00:00Z,29.6830,-94.0330,1035.6,1111122 
NDBC,ioos:station:NOAA.NDBC:SRST2:1,2017-01-09T03:00:00Z,29.6830,-94.0330,1035.6,1111122 
NDBC,ioos:station:NOAA.NDBC:SRST2:1,2017-01-09T04:00:00Z,29.6830,-94.0330,1035.9,1111122 
NDBC,ioos:station:NOAA.NDBC:SRST2:1,2017-01-09T05:00:00Z,29.6830,-94.0330,1035.7,1111122 
NDBC,ioos:station:NOAA.NDBC:SRST2:1,2017-01-09T06:00:00Z,29.6830,-94.0330,1034.8,1111122 
NDBC,ioos:station:NOAA.NDBC:SRST2:1,2017-01-09T07:00:00Z,29.6830,-94.0330,1033.9,1111122 
NDBC,ioos:station:NOAA.NDBC:SRST2:1,2017-01-09T08:00:00Z,29.6830,-94.0330,1033.3,1111122 
NDBC,ioos:station:NOAA.NDBC:SRST2:1,2017-01-09T09:00:00Z,29.6830,-94.0330,1033.2,1111122 
NDBC,ioos:station:NOAA.NDBC:SRST2:1,2017-01-09T10:00:00Z,29.6830,-94.0330,1033.0,1111122 
NDBC,ioos:station:NOAA.NDBC:SRST2:1,2017-01-09T11:00:00Z,29.6830,-94.0330,1032.4,1111122 
NDBC,ioos:station:NOAA.NDBC:SRST2:1,2017-01-09T12:00:00Z,29.6830,-94.0330,1032.3,1111122 
NDBC,ioos:station:NOAA.NDBC:SRST2:1,2017-01-09T13:00:00Z,29.6830,-94.0330,1032.0,1111122 
NDBC,ioos:station:NOAA.NDBC:SRST2:1,2017-01-09T14:00:00Z,29.6830,-94.0330,1031.9,1111122 
NDBC,ioos:station:NOAA.NDBC:SRST2:1,2017-01-09T15:00:00Z,29.6830,-94.0330,1032.2,1111122 
NDBC,ioos:station:NOAA.NDBC:SRST2:1,2017-01-09T16:00:00Z,29.6830,-94.0330,1032.7,1111122 
NDBC,ioos:station:NOAA.NDBC:SRST2:1,2017-01-09T17:00:00Z,29.6830,-94.0330,1032.0,1111122 
NDBC,ioos:station:NOAA.NDBC:SRST2:1,2017-01-09T18:00:00Z,29.6830,-94.0330,1030.7,1111122 
NDBC,ioos:station:NOAA.NDBC:SRST2:1,2017-01-09T19:00:00Z,29.6830,-94.0330,1028.9,1111122 
NDBC,ioos:station:NOAA.NDBC:SRST2:1,2017-01-09T20:00:00Z,29.6830,-94.0330,1027.9,1111122 
NDBC,ioos:station:NOAA.NDBC:SRST2:1,2017-01-09T21:00:00Z,29.6830,-94.0330,1027.4,1111122 
NDBC,ioos:station:NOAA.NDBC:SRST2:1,2017-01-09T22:00:00Z,29.6830,-94.0330,1027.2,1111122 
NDBC,ioos:station:NOAA.NDBC:SRST2:1,2017-01-09T23:00:00Z,29.6830,-94.0330,1026.7,1111122 
NDBC,ioos:station:NOAA.NDBC:SRST2:1,2017-01-10T00:00:00Z,29.6830,-94.0330,1026.3,1111122 
NDBC,ioos:station:NOAA.NDBC:SRST2:1,2017-01-10T01:00:00Z,29.6830,-94.0330,1025.8,1111122 
NDBC,ioos:station:NOAA.NDBC:SRST2:1,2017-01-10T02:00:00Z,29.6830,-94.0330,1025.8,1111122 
NDBC,ioos:station:NOAA.NDBC:SRST2:1,2017-01-10T03:00:00Z,29.6830,-94.0330,1025.8,1111122 
NDBC,ioos:station:NOAA.NDBC:SRST2:1,2017-01-10T04:00:00Z,29.6830,-94.0330,1025.3,1111122 
NDBC,ioos:station:NOAA.NDBC:SRST2:1,2017-01-10T05:00:00Z,29.6830,-94.0330,1024.9,1111122 
NDBC,ioos:station:NOAA.NDBC:SRST2:1,2017-01-10T06:00:00Z,29.6830,-94.0330,1024.0,1111122 
NDBC,ioos:station:NOAA.NDBC:SRST2:1,2017-01-10T07:00:00Z,29.6830,-94.0330,1022.9,1111122 
NDBC,ioos:station:NOAA.NDBC:SRST2:1,2017-01-10T08:00:00Z,29.6830,-94.0330,1022.1,1111122 
NDBC,ioos:station:NOAA.NDBC:SRST2:1,2017-01-10T09:00:00Z,29.6830,-94.0330,1022.0,1111122 
NDBC,ioos:station:NOAA.NDBC:SRST2:1,2017-01-10T10:00:00Z,29.6830,-94.0330,1021.9,1111122 
NDBC,ioos:station:NOAA.NDBC:SRST2:1,2017-01-10T11:00:00Z,29.6830,-94.0330,1021.1,1111122 
NDBC,ioos:station:NOAA.NDBC:SRST2:1,2017-01-10T12:00:00Z,29.6830,-94.0330,1020.4,1111122 
NDBC,ioos:station:NOAA.NDBC:SRST2:1,2017-01-10T13:00:00Z,29.6830,-94.0330,1020.7,1111122 
NDBC,ioos:station:NOAA.NDBC:SRST2:1,2017-01-10T14:00:00Z,29.6830,-94.0330,1020.3,1111122 
NDBC,ioos:station:NOAA.NDBC:SRST2:1,2017-01-10T15:00:00Z,29.6830,-94.0330,1021.4,1111122 
NDBC,ioos:station:NOAA.NDBC:SRST2:1,2017-01-10T16:00:00Z,29.6830,-94.0330,1022.1,1111122 
NDBC,ioos:station:NOAA.NDBC:SRST2:1,2017-01-10T17:00:00Z,29.6830,-94.0330,1022.0,1111122 
NDBC,ioos:station:NOAA.NDBC:SRST2:1,2017-01-10T18:00:00Z,29.6830,-94.0330,1021.4,1111122 
NDBC,ioos:station:NOAA.NDBC:SRST2:1,2017-01-10T19:00:00Z,29.6830,-94.0330,1020.5,1111122 
NDBC,ioos:station:NOAA.NDBC:SRST2:1,2017-01-10T20:00:00Z,29.6830,-94.0330,1019.9,1111122 
NDBC,ioos:station:NOAA.NDBC:SRST2:1,2017-01-10T21:00:00Z,29.6830,-94.0330,1019.2,1111122 
NDBC,ioos:station:NOAA.NDBC:SRST2:1,2017-01-10T22:00:00Z,29.6830,-94.0330,1019.5,1111122 
NDBC,ioos:station:NOAA.NDBC:SRST2:1,2017-01-10T23:00:00Z,29.6830,-94.0330,1019.7,1111122 
NDBC,ioos:station:NOAA.NDBC:SRST2:1,2017-01-11T00:00:00Z,29.6830,-94.0330,1019.9,1111122 
NDBC,ioos:station:NOAA.NDBC:SRST2:1,2017-01-11T01:00:00Z,29.6830,-94.0330,1020.0,1111122 
NDBC,ioos:station:NOAA.NDBC:SRST2:1,2017-01-11T02:00:00Z,29.6830,-94.0330,1020.0,1111122 
NDBC,ioos:station:NOAA.NDBC:SRST2:1,2017-01-11T03:00:00Z,29.6830,-94.0330,1020.4,1111122 
NDBC,ioos:station:NOAA.NDBC:SRST2:1,2017-01-11T04:00:00Z,29.6830,-94.0330,1020.5,1111122 
NDBC,ioos:station:NOAA.NDBC:SRST2:1,2017-01-11T05:00:00Z,29.6830,-94.0330,1020.2,1111122 
NDBC,ioos:station:NOAA.NDBC:SRST2:1,2017-01-11T06:00:00Z,29.6830,-94.0330,1020.0,1111122 
NDBC,ioos:station:NOAA.NDBC:SRST2:1,2017-01-11T07:00:00Z,29.6830,-94.0330,1020.0,1111122 
NDBC,ioos:station:NOAA.NDBC:SRST2:1,2017-01-11T08:00:00Z,29.6830,-94.0330,1019.7,1111122 
NDBC,ioos:station:NOAA.NDBC:SRST2:1,2017-01-11T09:00:00Z,29.6830,-94.0330,1019.5,1111122 
NDBC,ioos:station:NOAA.NDBC:SRST2:1,2017-01-11T10:00:00Z,29.6830,-94.0330,1019.4,1111122 
NDBC,ioos:station:NOAA.NDBC:SRST2:1,2017-01-11T11:00:00Z,29.6830,-94.0330,1019.1,1111122 
NDBC,ioos:station:NOAA.NDBC:SRST2:1,2017-01-11T12:00:00Z,29.6830,-94.0330,1019.1,1111122 
NDBC,ioos:station:NOAA.NDBC:SRST2:1,2017-01-11T13:00:00Z,29.6830,-94.0330,1019.3,1111122 
NDBC,ioos:station:NOAA.NDBC:SRST2:1,2017-01-11T14:00:00Z,29.6830,-94.0330,1019.8,1111122 
NDBC,ioos:station:NOAA.NDBC:SRST2:1,2017-01-11T15:00:00Z,29.6830,-94.0330,1020.3,1111122 
NDBC,ioos:station:NOAA.NDBC:SRST2:1,2017-01-11T16:00:00Z,29.6830,-94.0330,1020.9,1111122 
NDBC,ioos:station:NOAA.NDBC:SRST2:1,2017-01-11T17:00:00Z,29.6830,-94.0330,1020.5,1111122 
NDBC,ioos:station:NOAA.NDBC:SRST2:1,2017-01-11T18:00:00Z,29.6830,-94.0330,1019.9,1111122 
NDBC,ioos:station:NOAA.NDBC:SRST2:1,2017-01-11T19:00:00Z,29.6830,-94.0330,1019.1,1111122 
NDBC,ioos:station:NOAA.NDBC:SRST2:1,2017-01-11T20:00:00Z,29.6830,-94.0330,1018.6,1111122 
NDBC,ioos:station:NOAA.NDBC:SRST2:1,2017-01-11T21:00:00Z,29.6830,-94.0330,1018.2,1111122 
NDBC,ioos:station:NOAA.NDBC:SRST2:1,2017-01-11T22:00:00Z,29.6830,-94.0330,1018.0,1111122 
NDBC,ioos:station:NOAA.NDBC:SRST2:1,2017-01-11T23:00:00Z,29.6830,-94.0330,1018.2,1111122 
NDBC,ioos:station:NOAA.NDBC:SRST2:1,2017-01-12T00:00:00Z,29.6830,-94.0330,1017.9,1111122 
NDBC,ioos:station:NOAA.NDBC:SRST2:1,2017-01-12T01:00:00Z,29.6830,-94.0330,1018.0,1111122 
NDBC,ioos:station:NOAA.NDBC:SRST2:1,2017-01-12T02:00:00Z,29.6830,-94.0330,1017.9,1111122 
NDBC,ioos:station:NOAA.NDBC:SRST2:1,2017-01-12T03:00:00Z,29.6830,-94.0330,1018.3,1111122 
NDBC,ioos:station:NOAA.NDBC:SRST2:1,2017-01-12T04:00:00Z,29.6830,-94.0330,1018.4,1111122 
NDBC,ioos:station:NOAA.NDBC:SRST2:1,2017-01-12T05:00:00Z,29.6830,-94.0330,1018.7,1111122 
NDBC,ioos:station:NOAA.NDBC:SRST2:1,2017-01-12T06:00:00Z,29.6830,-94.0330,1018.4,1111122 